| time (UTC) | temp C | wind direction | speed KPH | gust KPH | rain 1hr cm | rain 24hr cm | rain mn cm | humidity % | barometer mb |
| 20260901131529 | 22 | 210 | 9.7 | 24.1 | 0.00 | 0.00 | 0.00 | 60 | 1015.3 |
| 20260901130527 | 21 | 194 | 11.3 | 17.7 | 0.00 | 0.00 | 0.00 | 59 | 1015.2 |
| 20260901125524 | 23 | 152 | 14.5 | 30.6 | 0.00 | 0.00 | 0.00 | 51 | 1015.2 |
| 20260901124522 | 23 | 192 | 16.1 | 30.6 | 0.00 | 0.00 | 0.00 | 51 | 1015.2 |
| 20260901123519 | 22 | 179 | 11.3 | 25.7 | 0.00 | 0.00 | 0.00 | 57 | 1015.1 |
| 20260901122517 | 22 | 140 | 12.9 | 25.7 | 0.00 | 0.00 | 0.00 | 52 | 1015.2 |
| 20260901121549 | 22 | 128 | 12.9 | 32.2 | 0.00 | 0.00 | 0.00 | 55 | 1015.2 |
| 20260901120547 | 22 | 225 | 16.1 | 25.7 | 0.00 | 0.00 | 0.00 | 62 | 1015.1 |
| 20260901115524 | 21 | 144 | 8.0 | 14.5 | 0.00 | 0.00 | 0.00 | 69 | 1015.3 |
| 20260901114522 | 20 | 149 | 8.0 | 12.9 | 0.00 | 0.00 | 0.00 | 72 | 1015.4 |
| 20260901113519 | 18 | 173 | 8.0 | 12.9 | 0.00 | 0.00 | 0.00 | 73 | 1015.5 |
| 20260901112517 | 18 | 90 | 9.7 | 17.7 | 0.00 | 0.00 | 0.00 | 72 | 1015.6 |
| 20260901111515 | 18 | 155 | 14.5 | 24.1 | 0.00 | 0.00 | 0.00 | 71 | 1015.6 |
| 20260901110527 | 19 | 164 | 16.1 | 30.6 | 0.00 | 0.00 | 0.00 | 66 | 1015.3 |
| 20260901105545 | 21 | 173 | 19.3 | 33.8 | 0.00 | 0.00 | 0.00 | 61 | 1015.3 |
| 20260901104522 | 21 | 195 | 11.3 | 22.5 | 0.00 | 0.00 | 0.00 | 61 | 1015.0 |
| 20260901103520 | 21 | 123 | 14.5 | 27.4 | 0.00 | 0.00 | 0.00 | 61 | 1014.9 |
| 20260901102538 | 21 | 200 | 12.9 | 25.7 | 0.00 | 0.00 | 0.00 | 62 | 1014.8 |
| 20260901101515 | 21 | 119 | 11.3 | 22.5 | 0.00 | 0.00 | 0.00 | 64 | 1014.8 |
| 20260901100528 | 20 | 113 | 11.3 | 24.1 | 0.00 | 0.00 | 0.00 | 64 | 1014.8 |
| 20260901095525 | 20 | 226 | 9.7 | 19.3 | 0.00 | 0.00 | 0.00 | 62 | 1014.8 |
| 20260901094522 | 21 | 148 | 11.3 | 19.3 | 0.00 | 0.00 | 0.00 | 62 | 1014.7 |
| 20260901093520 | 21 | 145 | 14.5 | 22.5 | 0.00 | 0.00 | 0.00 | 62 | 1014.7 |
| 20260901092518 | 21 | 181 | 14.5 | 27.4 | 0.00 | 0.00 | 0.00 | 61 | 1014.5 |
| 20260901091515 | 21 | 136 | 12.9 | 27.4 | 0.00 | 0.00 | 0.00 | 62 | 1014.4 |
| 20260901090528 | 20 | 125 | 11.3 | 25.7 | 0.00 | 0.00 | 0.00 | 67 | 1014.5 |
| 20260901085525 | 19 | 150 | 11.3 | 19.3 | 0.00 | 0.00 | 0.00 | 69 | 1014.7 |
| 20260901084523 | 20 | 151 | 11.3 | 24.1 | 0.00 | 0.00 | 0.00 | 66 | 1014.5 |
| 20260901083520 | 20 | 142 | 12.9 | 24.1 | 0.00 | 0.00 | 0.00 | 64 | 1014.4 |
| 20260901082518 | 20 | 202 | 11.3 | 25.7 | 0.00 | 0.00 | 0.00 | 64 | 1014.3 |
| 20260901081515 | 20 | 215 | 11.3 | 24.1 | 0.00 | 0.00 | 0.00 | 64 | 1014.0 |
| 20260901080528 | 20 | 180 | 12.9 | 22.5 | 0.00 | 0.00 | 0.00 | 66 | 1014.0 |
| 20260901075525 | 20 | 110 | 11.3 | 17.7 | 0.00 | 0.00 | 0.00 | 68 | 1013.9 |